Weather History for KRAL - September, 2014

Change the Weather History Date:

Thursday, September 4, 2014

  Actual Average Record
Temperature  
Mean Temperature 77 °F 78 °F  
Max Temperature 88 °F 93 °F 111 °F (2007)
Min Temperature 65 °F 64 °F 42 °F (1912)
Degree Days  
Heating Degree Days 0 0  
Month to date heating degree days 0 0  
Since 1 July heating degree days 0 0  
Cooling Degree Days 12 13  
Month to date cooling degree days 54 54  
Year to date cooling degree days 1645 1312  
Growing Degree Days 26 (Base 50)    
Moisture  
Dew Point 61 °F    
Average Humidity 66    
Maximum Humidity 93    
Minimum Humidity 39    
Precipitation  
Precipitation 0.00 in 0.00 in 0.61 in (1963)
Month to date precipitation 0.00 0.00  
Year to date precipitation 1.86 9.34  
Since 1 July precipitation 0.14 0.15  
Snow  
Snow 0.00 in - - ()
Month to date snowfall 0.0  
Year to date snowfall 0.0  
Since 1 July snowfall 0.0  
Snow Depth 0.00 in    
Sea Level Pressure  
Sea Level Pressure 29.74 in    
Wind  
Wind Speed 3 mph (West)    
Max Wind Speed 15 mph    
Max Gust Speed 21 mph    
Visibility 8 miles    
Events      
T = Trace of Precipitation, MM = Missing Value Source: NWS Daily Summary

Daily Weather History Graph

Daily Weather History Graph

Search for Another Location

Airport or City:

Trip Planner

Search our weather history database for the weather conditions in past years. The results will help you decide how hot, cold, wet, or windy it might be!

Date:

Astronomy

Sep. 04, 2014 Rise Set
Actual Time 6:25 AM PDT 7:11 PM PDT
Civil Twilight 6:00 AM PDT 7:36 PM PDT
Nautical Twilight 5:30 AM PDT 8:06 PM PDT
Astronomical Twilight 4:59 AM PDT 8:37 PM PDT
Moon 3:45 PM PDT (9/4) 1:29 AM PDT (9/4)
Length of Visible Light 13h 36m
Length of Day
12h 45m
Waxing Gibbous, 75% of the Moon is Illuminated
Sep 4
Waxing Gibbous
Sep 8
Full
Sep 15
Last Quarter
Sep 23
New
Oct 1
First Quarter

Hourly Weather History & Observations

Time (PDT) Temp. Heat Index Dew Point Humidity Pressure Visibility Wind Dir Wind Speed Gust Speed Precip Events Conditions
12:53 AM 66.9 °F - 62.1 °F 84% 29.71 in 10.0 mi Calm Calm - N/A   Clear
1:53 AM 66.0 °F - 62.1 °F 87% 29.70 in 9.0 mi West 4.6 mph - N/A   Clear
2:30 AM 66.0 °F - 62.1 °F 87% 29.75 in 8.0 mi West 4.6 mph - N/A   Scattered Clouds
2:33 AM 66.0 °F - 62.1 °F 87% 29.75 in 8.0 mi West 4.6 mph - N/A   Mostly Cloudy
2:53 AM 64.9 °F - 62.1 °F 90% 29.70 in 7.0 mi West 4.6 mph - N/A   Overcast
3:53 AM 66.0 °F - 62.1 °F 87% 29.70 in 7.0 mi Variable 3.5 mph - N/A   Overcast
5:35 AM 66.9 °F - 62.1 °F 84% 29.75 in 7.0 mi Calm Calm - N/A   Overcast
5:53 AM 66.9 °F - 62.1 °F 84% 29.70 in 7.0 mi Calm Calm - N/A   Overcast
6:53 AM 66.9 °F - 62.1 °F 84% 29.72 in 5.0 mi Calm Calm - N/A   Haze
7:53 AM 66.9 °F - 62.1 °F 84% 29.74 in 5.0 mi Calm Calm - N/A   Haze
8:53 AM 66.9 °F - 62.1 °F 84% 29.75 in 5.0 mi Calm Calm - N/A   Haze
9:53 AM 69.1 °F - 62.1 °F 78% 29.77 in 6.0 mi SE 3.5 mph - N/A   Haze
10:40 AM 70.0 °F - 62.1 °F 76% 29.82 in 6.0 mi Calm Calm - N/A   Haze
10:53 AM 70.0 °F - 62.1 °F 76% 29.77 in 7.0 mi Calm Calm - N/A   Overcast
11:42 AM 73.0 °F - 62.1 °F 68% 29.80 in 6.0 mi Variable 4.6 mph - N/A   Haze
11:53 AM 73.9 °F - 62.1 °F 66% 29.76 in 6.0 mi Calm Calm - N/A   Haze
12:53 PM 78.1 °F - 62.1 °F 58% 29.73 in 6.0 mi Calm Calm - N/A   Haze
1:53 PM 82.0 °F 82.7 °F 61.0 °F 49% 29.71 in 10.0 mi West 5.8 mph - N/A   Clear
2:53 PM 86.0 °F 85.7 °F 60.1 °F 41% 29.70 in 10.0 mi West 5.8 mph - N/A   Clear
3:53 PM 88.0 °F 87.1 °F 59.0 °F 37% 29.68 in 10.0 mi West 9.2 mph - N/A   Clear
4:53 PM 84.9 °F 84.4 °F 59.0 °F 41% 29.69 in 10.0 mi West 12.7 mph 20.7 mph N/A   Clear
5:53 PM 82.0 °F 82.1 °F 59.0 °F 45% 29.69 in 10.0 mi West 11.5 mph 17.3 mph N/A   Clear
6:53 PM 78.1 °F - 60.1 °F 54% 29.70 in 10.0 mi West 10.4 mph - N/A   Clear
7:53 PM 73.9 °F - 60.1 °F 62% 29.73 in 10.0 mi West 9.2 mph - N/A   Clear
8:53 PM 73.0 °F - 61.0 °F 66% 29.75 in 10.0 mi West 5.8 mph - N/A   Clear
9:53 PM 72.0 °F - 61.0 °F 68% 29.77 in 10.0 mi Calm Calm - N/A   Clear
10:53 PM 71.1 °F - 61.0 °F 70% 29.78 in 10.0 mi NW 3.5 mph - N/A   Clear
11:53 PM 69.1 °F - 61.0 °F 75% 29.78 in 10.0 mi Calm Calm - N/A   Clear